Погода в Юламаново

Россия / Курганская область     54°47′52″N   62°57′36″E
темп.,
°C
ветер,
м/с
пор.,
м/с
влажн.,
%
обл.,
%
осадки,
мм/ч
давл.,
гПа
погр.,
м
28 февраля, вс
вс2823:00−13юв61293100 1.0 1014625
02:00−14юв71293100 0.4 1012457
05:00−14вюв51095100 0.6 1011331
08:00−16в5119599 0.1 1010272
11:00−14в589599 0.3 1008289
14:00−11в5894100 0.3 1008350
17:00−12всв5895100 0.6 1007362
20:00−14св489496 0.3 1008258
1 марта, пн
пн123:00−16ссв479797 0.3 1009169
02:00−17ссв479698 0.1 1011188
05:00−19с469896 0.1 1013120
08:00−21с359888 0.0 1014106
11:00−18с349590 0.1 1016231
14:00−16ссз349298 0.0 1017315
17:00−15с239399 0.1 1018273
20:00−18ссз019882 0.1 101820
2 марта, вт
вт223:00−17зюз119780 0.1 101920
02:00−20юз229973 0.0 101720
05:00−19юз229877 0.0 101620
08:00−19ююз239877 0.0 101526
11:00−15ююз349577 0.1 1014233
14:00−13ю469495 0.0 1012294
17:00−13ю489598 0.1 1010310
20:00−16ю499798 0.0 1008163
3 марта, ср
ср323:00−15ю5109494 0.0 1007219
02:00−11ююз6129389 0.1 1005454
05:00−11юз6129295 0.2 1005503
08:00−13ююз5129287 0.0 1004301
11:00−6ююз7129193 0.1 1003658
14:00−3юз71190100 0.1 1002726
17:00−2юз61088100 0.1 1002659
20:00−5ююз4992100 0.0 1002195
4 марта, чт
чт423:00−6юз499397 0.0 1002187
02:00−8юз349574 0.0 100157
05:00−9юз339466 0.1 100232
08:00−8зсз349599 0.0 100274
11:00−6сз5892100 0.3 1002449
14:00−6сз5887100 0.0 1003565
17:00−8зсз359060 0.0 100485
20:00−11зюз448711 0.0 100644